Regional Weather Roundup
Issued by NWS Jackson, KY

Home | Current Version | Previous Version | Text Only | Print | Product List | Glossary Off
Versions: 1 2 3 4 5 6 7 8 9 10 11 12 13 14 15 16 17 18 19 20 21 22 23 24 25 26 27 28 29 30 31 32 33 34 35 36 37 38 39 40 41 42 43 44 45 46 47 48 49 50

307
ASUS43 KJKL 132110
RWRJKL

EAST KENTUCKY HOURLY WEATHER ROUNDUP
NATIONAL WEATHER SERVICE JACKSON KY
400 PM EST SAT FEB 13 2016

NOTE: "FAIR" INDICATES FEW OR NO CLOUDS BELOW 12,000 FEET WITH
NO SIGNIFICANT WEATHER AND/OR OBSTRUCTIONS TO VISIBILITY.

* THESE REPORTS ARE NOT UNDER NWS QUALITY CONTROL AND MAY NOT
  REPORT WEATHER SUCH AS PRECIPITATION AND FOG.

KYZ079-080-083-085-087-088-110-112-115-119-120-132200
...EASTERN KENTUCKY...

CITY           SKY/WX    TMP DP  RH WIND       PRES   REMARKS
JACKSON        MOSUNNY   22   4  46 VRB5      30.42S WCI  16
LONDON         SUNNY     25   3  38 NE6       30.42S WCI  18
SOMERSET*      SUNNY     25   3  39 NE3       30.48S
MONTICELLO*    SUNNY     28   9  44 N9G16     30.48S WCI  19
WILLIAMSBURG*  CLEAR     27   5  39 NW6       30.43S WCI  20
MIDDLESBORO*   SUNNY     27   4  38 NE8       30.42S WCI  19
HARLAN APT*      N/A     27   0  31 SW9G16    30.38R WCI  17
HAZARD APT*    CLEAR     -4 -22  41 N3        30.42S
BLACK MTN*       N/A     14   5  67 N1          N/A
BIG SANDY*     PTCLDY    20  -1  40 W6        30.43R WCI  12
MOREHEAD APT*  CLOUDY    21   1  42 NW7       30.49S WCI  13
$$

KYZ035-036-041-042-044-050-067-078-099-132200
...CENTRAL KENTUCKY...

CITY           SKY/WX    TMP DP  RH WIND       PRES   REMARKS
MT STERLING*   MOSUNNY   23   3  42 NE9       30.48F WCI  13
DANVILLE*      SUNNY     23   5  46 N9        30.48S WCI  13
RICHMOND*      MOSUNNY   23   3  42 N9        30.46S WCI  13
LEXINGTON      SUNNY     24   2  38 N7        30.47S WCI  16
FRANKFORT      SUNNY     24  -2  32 W9        30.48F WCI  14
$$

KYZ091>093-OHZ055-061-077-WVZ005-015-034-035-042-132200
...SOUTHERN OHIO/WEST VIRGINIA...

CITY           SKY/WX    TMP DP  RH WIND       PRES   REMARKS
COVINGTON      MOSUNNY   19   0  43 NW7       30.49F WCI  10
COLUMBUS       CLOUDY    14  -2  49 W14       30.47R WCI  -1
DAYTON         PTSUNNY   14   2  58 NW13      30.48F WCI   0
WILMINGTON     MOSUNNY   15  -2  46 NW12      30.47S WCI   2
HUNTINGTON       N/A     22  -2  35 NW15      30.46S WCI   9
CHARLESTON       N/A     18  -4  37 NW12G24   30.43R WCI   5
PINEVILLE*       N/A     18   1  47 MISG      30.40R
BECKLEY          N/A     13  -4  46 NW16G23   30.26R WCI  -3
$$

VAZ002-007-008-TNZ017-027-036-066-071-132200
...SOUTHWEST VIRGINIA/EAST TENNESSEE...

CITY           SKY/WX    TMP DP  RH WIND       PRES   REMARKS
BRISTOL        MOSUNNY   26   5  40 NW9       30.35R WCI  17
KNOXVILLE      SUNNY     31   5  33 NE9       30.40F WCI  23
OAK RIDGE      SUNNY     33  -1  23 N8        30.42S WCI  26
CROSSVILLE     SUNNY     28   5  37 N10       30.36F WCI  19
NASHVILLE      MOSUNNY   32   1  26 N7        30.50F WCI  26
$$

...KEY TO REMARKS...
VSB - VISIBILITY IN MILES
WCI - WIND CHILL INDEX
HX  - HEAT INDEX

$$




USA.gov is the U.S. government's official web portal to all federal, state and local government web resources and services.